Regional Weather Roundup
Issued by NWS

Home | Current Version | Previous Version | Graphics & Text | Print | Product List | Glossary On
Versions: 1 2 3 4 5 6 7 8 9 10 11 12 13 14 15 16 17 18 19 20 21 22 23 24 25 26 27 28 29 30 31 32 33 34 35 36 37 38 39 40 41 42 43 44 45 46 47 48 49 50
000
ASUS44 KMEG 241210
RWRTN
TENNESSEE HOURLY STATE WEATHER ROUNDUP
NATIONAL WEATHER SERVICE MEMPHIS TN
700 AM CDT FRI MAR 24 2017

TNZ002-004-019-021-049-052-054-088>092-241300-
WEST TENNESSEE

CITY           SKY/WX    TMP DP  RH WIND       PRES   REMARKS
MEMPHIS INTL   MOCLDY    66  59  78 S14G24    30.10R
NWS MEMPHIS      N/A     65 N/A N/A MISG        N/A
JACKSON        CLOUDY    63  56  78 S12G17    30.14R
DYERSBURG      PTCLDY    64  57  78 S9G17     30.11R
SOMERVILLE     CLEAR     64  57  77 S9G16     30.12R
BOLIVAR        MOCLDY    63  57  82 SE8G16    30.15R
PARIS          CLEAR     59  54  82 S14       30.15R
HUNTINGDON     PTCLDY    63  55  77 S14G20    30.14S
SAVANNAH       PTCLDY    63  55  77 S12G17    30.19R
$$

TNZ008-025-027-028-033-062-065-066-241300-
NORTH MIDDLE TENNESSEE

CITY           SKY/WX    TMP DP  RH WIND       PRES   REMARKS
NASHVILLE      CLOUDY    61  48  62 S14       30.25R
PORTLAND       CLOUDY    59  46  63 S17G25    30.23R
CLARKSVILLE    CLEAR     60  50  69 S9        30.18R
SMYRNA         CLOUDY    61  49  64 S10       30.26R
COOKEVILLE     CLOUDY    57  43  58 S10G17    30.28R
GALLATIN       CLOUDY    59  46  63 S7        30.28R
CROSSVILLE     CLOUDY    54  41  61 S12G23    30.33R
$$

TNZ061-075-076-078-094-096-097-241300-
SOUTH MIDDLE TENNESSEE

CITY           SKY/WX    TMP DP  RH WIND       PRES   REMARKS
FAYETTEVILLE   CLOUDY    61  50  67 S15       30.28S
TULLAHOMA      CLOUDY    57  45  62 S13       30.30R
WINCHESTER     CLOUDY    57  46  67 S14       30.30S
MCMINNVILLE    CLOUDY    59  45  58 S10G18    30.29S
COLUMBIA       CLOUDY    61  55  82 S12       30.23R
SHELBYVILLE    CLOUDY    61  50  67 S13       30.28S
$$

TNZ017-018-042-046-047-241300-
NORTHEAST TENNESSEE

CITY           SKY/WX    TMP DP  RH WIND       PRES   REMARKS
TRI CITIES     PTCLDY    46  34  62 CALM      30.38R
ELIZABETHTON   CLEAR     46  34  61 E8        30.39S
$$

TNZ012-013-036-069-073-074-241300-
CENTRAL EAST TENNESSEE

CITY           SKY/WX    TMP DP  RH WIND       PRES   REMARKS
KNOXVILLE      CLOUDY    54  40  59 NE5       30.36R
OAK RIDGE      CLOUDY    58  37  45 VRB3      30.37R
DOWNTOWN KNOXV CLOUDY    52  41  66 CALM      30.37R
GATLINBURG     CLOUDY    45  39  81 CALM      30.36R
MORRISTOWN     CLOUDY    52  34  50 CALM      30.35R
JACKSBORO      MOCLDY    55  37  50 VRB7      30.37R
$$

TNZ083-085-099-241300-
SOUTHEAST TENNESSEE

CITY           SKY/WX    TMP DP  RH WIND       PRES   REMARKS
CHATTANOOGA    MOCLDY    58  41  53 S7        30.37R
$$

SKY/WX REPORTED AS FAIR MEANS FEW OR NO CLOUDS BELOW
12 THOUSAND FEET.





USA.gov is the U.S. government's official web portal to all federal, state and local government web resources and services.